www.pogodaiklimat.ru

Погода и климат >> Архив погоды >> Россия >> Хакасия >> Таштып


ПОГОДА в Таштыпе

  • Прогноз погоды в Таштыпе
  • Монитор погоды в Таштыпе

АРХИВ ПОГОДЫ в Таштыпе

Время (UTC), дата Ветер
(напр.,м/с)
 
Видим.   Явления Облачность Т
(С)
Тd
(С)
f
(%)
Тe
(С)
Тes
(С)
Комфортность P
(гПа)
Po
(гПа)
Тmin
(С)
Tmax
(С)
R
(мм)
R24
(мм)
S
(см)
09 12.02 Ю 1 20 км 6/0
[Cs]
-16.4 -22.4 60 -19 -18 1034.8 975.0
12 12.02 штиль 0 23 км 10/0
[Ac As Cs]
-20.1 -24.2 70 -20 -20 1037.0 976.2 -15.5
15 12.02 штиль 0 30 км 10/0
[Ac As]
-23.9 -26.4 80 -24 -24 1039.7 977.8
18 12.02 штиль 0 35 км 10/0
[Ac As]
-22.3 -24.9 79 -22 -22 1040.1 978.7
21 12.02 З 1 50 км 10/0
[Ac As]
-22.9 -24.8 84 -26 -26 1041.6 979.8
00 13.02 штиль 0 50 км 4/0
[Ac As Ci fib]
-23.1 -25.0 84 -23 -23 1041.2 979.4 -24.7 9
03 13.02 штиль 0 20 км 8/0
[Ac trans Cs]
-19.0 -20.9 85 -19 -18 1040.6 979.8
06 13.02 ЮЗ 1 50 км 8/0
[Ci sp]
-10.6 -14.2 75 -13 -9 1038.9 980.3
09 13.02 Ю 1 50 км 8/0
[Ac trans Ci sp]
-6.2 -13.1 58 -8 -7 1036.4 978.8
12 13.02 З 1 20 км 10/4 1000 м
[Sc Ac As]
-9.9 -13.5 75 -12 -12 1036.9 978.4 -5.0
15 13.02 штиль 0 9000 м слаб. снег 10/0
[As op]
-11.6 -13.6 85 -12 -12 1038.4 979.5
18 13.02 штиль 0 6000 м слаб. снег 10/0
[As op]
-12.9 -13.5 95 -13 -13 1038.1 978.9
21 13.02 З 2 2600 м снег 10/0
[As op]
-11.8 -12.4 95 -16 -16 1037.9 978.9
00 14.02 ЮЗ 3 н/о слаб. снег 10/0
[As op]
-11.4 -12.0 95 -17 -17 1038.0 979.1 -12.1 0.6 10
03 14.02 З 1 50 км {снег} 10/5 1000 м
[Sc Ac As]
-10.4 -11.7 90 -13 -13 1037.9 979.3
06 14.02 Ю 2 50 км {снег} 6/0
[Ac As Ci fib]
-5.5 -10.2 69 -10 -7 1036.6 979.1
09 14.02 Ю 1 20 км 10/5 1000 м
[Cb cap Ac As]
-3.5 -10.0 61 -5 -5 1035.3 978.3
12 14.02 ЮЗ 2 50 км 6/6 1170 м
[Cb cap]
-8.3 -11.1 80 -13 -13 1036.6 978.5 -2.9 0.0
15 14.02 ЮЗ 2 24 км 9/5 1000 м
[Cb cap Ac As]
-7.6 -10.2 82 -12 -12 1036.6 978.8
18 14.02 ЮЗ 1 25 км 9/5 1000 м
[Cb cap Ac As]
-6.8 -9.7 80 -9 -9 1035.8 978.0
21 14.02 ЮЗ 1 40 км 3/3 1000 м
[Sc]
-12.8 -13.4 95 -15 -15 1036.7 977.5
00 15.02 ЮЗ 1 35 км 3/3 1000 м
[Sc]
-16.1 -16.7 95 -19 -19 1037.8 977.9 -16.3 10
03 15.02 штиль 0 50 км ясно -15.6 -16.2 95 -16 -14 1037.5 977.8
06 15.02 В 1 50 км ясно -9.9 -13.5 75 -12 -7 1034.7 976.3
09 15.02 СВ 3 50 км ясно -5.1 -10.1 68 -10 -9 1032.7 975.4
12 15.02 В 2 50 км ясно -9.9 -12.5 81 -14 -14 1033.4 975.0 -5.1
15 15.02 штиль 0 50 км ясно -17.3 -18.5 90 -17 -17 1034.3 974.4
18 15.02 штиль 0 40 км ясно -20.6 -21.8 90 -21 -21 1034.5 973.6
21 15.02 штиль 0 40 км ясно -23.5 -25.4 84 -24 -24 1035.0 973.6
00 16.02 штиль 0 30 км ясно -22.8 -24.7 84 -23 -23 1033.9 972.7 -24.5 10
03 16.02 В 1 50 км ясно -21.5 -23.3 85 -25 -23 1033.6 912.8 -25.1
06 16.02 ЮВ 2 50 км 4/0
[Ci fib]
-12.8 -16.3 75 -17 -14 1030.0 971.2
09 16.02 В 2 50 км 10/0
[Cs]
-7.6 -13.1 65 -12 -11 1026.6 969.2
12 16.02 З 1 50 км 10/0
[Ac lent Ci fib]
-12.2 -14.2 85 -14 -14 1027.3 968.9 -4.8
15 16.02 СЗ 1 50 км 9/5 1000 м
[Cb cap Ac trans]
-13.6 -15.6 85 -16 -16 1027.7 969.0
18 16.02 В 1 50 км 8/0
[Ac As]
-17.4 -19.3 85 -20 -20 1028.4 968.9
21 16.02 В 1 50 км 9/9 1200 м
[Cb cap]
-16.6 -17.9 90 -19 -19 1029.5 970.1
00 17.02 штиль 0 50 км 10/10 1110 м
[Cb cap]
-12.6 -13.9 90 -13 -13 1026.3 967.9 -18.0 10
03 17.02 ЮЗ 1 50 км 10/0
[Ac As]
-11.0 -12.3 90 -13 -13 1025.4 967.3
06 17.02 штиль 0 50 км 4/0
[Ac trans]
-4.2 -9.7 65 -5 -1 1020.8 964.7
09 17.02 СВ 3 50 км ясно -1.5 -8.7 58 -6 -5 1017.1 961.5
12 17.02 СВ 2 50 км 5/0
[Cs]
-4.5 -10.1 65 -8 -8 1015.9 959.8 -1.4
15 17.02 ЮЗ 2 50 км 10/0
[Ac As Cs]
-10.8 -12.8 85 -15 -15 1016.2 958.7
18 17.02 штиль 0 50 км 10/0
[Ac As Cs]
-16.4 -17.0 95 -16 -16 1016.8 958.1
21 17.02 штиль 0 50 км 10/0
[Ac As]
-19.2 -20.4 90 -19 -19 1017.5 958.1
00 18.02 Ю 1 50 км ясно -21.6 -23.4 85 -25 -25 1018.2 958.1 -21.8 10
03 18.02 З 1 50 км 4/0
[Ci fib]
-18.2 -19.4 90 -21 -19 1017.3 958.1 -22.4
06 18.02 ЮВ 1 50 км 8/0
[Ci]
-9.8 -14.0 71 -12 -8 1014.5 957.2
09 18.02 В 2 50 км 10/0
[Ac As]
-6.5 -11.1 70 -11 -10 1012.6 956.3
12 18.02 В 1 50 км 10/0
[Ac As]
-7.7 -10.8 78 -10 -10 1012.9 956.4 -5.3
15 18.02 штиль 0 50 км 10/0
[Ac As]
-10.4 -11.7 90 -11 -11 1014.1 956.9
18 18.02 З 1 50 км 10/0
[Cs]
-11.6 -12.2 95 -14 -14 1015.2 957.7
21 18.02 ЮЗ 1 50 км 4/0
[Ci fib]
-10.3 -11.6 90 -13 -13 1017.3 959.9
00 19.02 ЮЗ 1 50 км 10/0
[Ac As]
-11.0 -11.6 95 -13 -13 1020.2 962.4 -13.7 10
03 19.02 штиль 0 50 км 10/0
[Ac As]
-7.5 -9.2 88 -8 -8 1021.0 964.0
06 19.02 ЮЗ 1 50 км 10/0
[Ac As]
-0.1 -5.5 67 -2 -0 1019.5 964.0

 

Местоположение метеостанции Таштып (Хакасия, Россия): широта 52.80 долгота 89.88 высота над уровнем моря 450 м.

В архиве по умолчанию представлена погода в Таштыпе за последнюю неделю. Архивные данные за месяц целиком и за предыдущие месяцы, начиная с января 2011 года, Вы можете получить, выбрав интересующий диапазон дат из раскрывающегося списка и нажав кнопку "Ввод!".


*Определитесь, кто Вы:
робот инопланетянин человек

Внимание! Время в таблицах - всемирное. Для получения местного времени необходимо прибавить поправку, которая равна 7 ч.

Смотрите также архив погоды в соседних городах и на ближайших метеорологических станциях:

Погода в Аскизе (Хакасия, Россия) (54 км)
Погода в Бее (Хакасия, Россия) (75 км)
Погода в Неожиданном (Хакасия, Россия) (76 км)
Погода в Большом Оне (Хакасия, Россия) (83 км)
Погода в Кантегире (Хакасия, Россия) (86 км)
Погода в Усть-Кабырзе (Кемеровская область, Россия) (96 км)
Погода в Карловом Створе (Хакасия, Россия) (100 км)
Погода в Черемушках (Хакасия, Россия) (101 км)
Погода в Уйбате (Хакасия, Россия) (107 км)
Погода в Саяногорске (Хакасия, Россия) (109 км)

Пояснения к столбцам:

Ветер - указаны скорость ветра в м/с - средняя за 10 мин, порывы в срок и между сроками (в фигурных скобках) и направление, откуда дует ветер: С - северный, СВ - северо-восточный, В - восточный, ЮВ - юго-восточный, Ю - южный, ЮЗ - юго-западный, З - западный, СЗ - северо-западный.
Видимость - горизонтальная дальность видимости в метрах или километрах. При видимости от 1 до 10 км при отсутствии осадков обычно наблюдается дымка, при ухудшении видимости до 1 км и менее - туман. В сухую погоду видимость может ухудшаться дымом, пылью или мглою.
Явления - указаны атмосферные явления, наблюдавшиеся в срок или в последний час перед сроком; фигурными скобками обозначены явления, наблюдавшиеся между сроками (за 1-3 часа до срока); квадратными скобками обозначены град или гололедные отложения с указанием их диаметра в мм.
Облачность - указаны через наклонную черту общая и нижняя облачность в баллах и высота нижней границы облаков в метрах; квадратными скобками обозначены формы облаков: Ci - перистые, Cs - перисто-слоистые, Cc - перисто-кучевые, Ac - высококучевые, As - высокослоистые, Sc - слоисто-кучевые, Ns - слоисто-дождевые, Cu - кучевые, Cb - кучево-дождевые. Подробнее классификацию облаков см. в Атласе облаков (PDF).
T - Температура воздуха - температура, измеренная на высоте 2 м над землей.
Td - Температура точки росы - температура, при понижении до которой содержащийся в воздухе водяной пар достигнет насыщения.
f - Относительная влажность воздуха - влажноcть воздуха, измеренная на высоте 2 м над землей.
Te - Эффективная температура - температура, которую ощущает одетый по сезону человек в тени. Характеристика душности погоды. При расчете учитывается влияние влажности воздуха и скорости ветра на теплоощущения человека.
Tes - Эффективная температура на солнце - температура, которую ощущает человек, с поправкой на солнечный нагрев. Характеристика знойности погоды. Зависит от высоты солнца над горизонтом, облачности и скорости ветра. Ночью, в пасмурную погоду, а также при ветре 12 м/с и более поправка равна нулю.
P - Атмосферное давление - приведенное к уровню моря атмосферное давление.
Po - Атмосферное давление - измеренное на уровне метеостанции атмосферное давление.
Tmin - Минимальная температура - минимум температуры воздуха на высоте 2 м над землей.
Tmax - Максимальная температура - максимум температуры воздуха на высоте 2 м над землей.
R - Количество осадков - Количество выпавших осадков за период времени, мм. При наведении курсора мыши на число - период времени, за который выпало указанное количество осадков.
R24 - Количество осадков - Количество выпавших осадков за 24 часа, мм.
S - Снежный покров - Высота снежного покрова, см. При наведении курсора мыши на число - состояние снежного покрова и степень покрытия местности в баллах.